Siga o Apolo11 no Facebook   Siga o Apolo11 no Twiiter
Ciência, Espaço e Tecnologia




Elementos Keplerianos formato Two Line

Para que um programa de rastreio possa saber a localização exata de qualquer satélite no espaço e assim poder rastreá-lo corretamente, é necessário que ele seja carregado com algumas informações.

Estas informações são chamadas de Elementos Orbitais ou Elementos Keplerianos e consistem em 2 linhas com dezenas de números. Esses números nada mais são que os parâmetros orbitais do satélite, tais como altitude, atitude, excentricidade da órbita, número de órbitas por dia, etc.

Com base nestas informações o programa é capaz de determinar com bastante exatidão a posição de qualquer satélite no espaço e nos informar em qual horário este estará dentro do alcance de nossa estação. Para que isso seja feito com precisão é necessário que os dados estejam sempre bem atualizadas.

Devido aos parâmetros orbitais serem descritos em 2 linhas, estes formato é também conhecido internacionalmente por 2line (leia-se Two Line”).

Para atualizar seu programa de rastreio basta copiar os dados disponibilizados e fornece-los ao programa. Nossos elementos orbitais são atualizados diariamente.

NOAATodos os satélites ambientais da série NOAA
30 DiasSatélites lançados nos últimos 30 dias
ISSSatélites e foguetes relacionados à Estação Espacial Internacional
HAMSatélites construídos por radiomadores
CUBESatélites tipo cubo, com 10 centímetros de lado
METEOSatélites voltados à previsão do tempo
EDUSatélites construídos e operados por universidades
VIS100 satélites mais brilhantes que podem ser vistos a olho nú



Satélites Visíveis
ATLAS CENTAUR 2         
1 00694U 63047A   22277.74323944  .00004758  00000+0  60574-3 0  9993
2 00694  30.3607 306.9261 0580966 278.3450  75.1720 14.03801110955055
THOR AGENA D R/B        
1 00733U 64002A   22278.06024953  .00000344  00000+0  14358-3 0  9999
2 00733  98.9922 211.2959 0032943 305.2025  54.6074 14.32578477 59447
SL-3 R/B                
1 00877U 64053B   22278.06415001  .00000336  00000+0  93939-4 0  9996
2 00877  65.0797  35.1066 0050327  63.7831 296.8429 14.59587246 84018
SL-8 R/B                
1 02802U 67045B   22278.14577993  .00000346  00000+0  10663-3 0  9991
2 02802  74.0128 162.1496 0065255 111.4296 249.3839 14.43961652908378
SL-8 R/B                
1 03230U 68040B   22278.19583631  .00002247  00000+0  22549-3 0  9992
2 03230  74.0359 325.6590 0028078 122.6365 237.7532 14.91694913923985
OAO 2                   
1 03597U 68110A   22278.04345761  .00000315  00000+0  92343-4 0  9994
2 03597  34.9947  45.9122 0006356 254.4098 105.5891 14.45996872838235
ISIS 1                  
1 03669U 69009A   22277.73863238  .00000227  00000+0  14450-3 0  9995
2 03669  88.4098 293.4623 1712613  94.8914 284.8876 11.29573236207133
SERT 2                  
1 04327U 70009A   22277.80332617  .00000015  00000+0  75288-4 0  9991
2 04327  99.1287 279.0860 0005623 124.2269  49.3750 13.58528391609893
SL-3 R/B                
1 04814U 70113B   22277.88156012  .00019901  00000+0  45718-3 0  9997
2 04814  81.1392 225.3987 0018394 249.7115 110.2151 15.42374473832119
SL-3 R/B                
1 05118U 71028B   22278.18842016  .00006351  00000+0  31165-3 0  9997
2 05118  81.2516  90.7983 0043339 269.8024  89.8239 15.17098918797279
ASTEX 1                 
1 05560U 71089A   22278.11945676  .00000535  00000+0  14307-3 0  9991
2 05560  92.7123 107.6049 0015822 352.3431   7.7530 14.48353531681282
SL-8 R/B                
1 05730U 71119B   22278.19481341  .00008974  00000+0  55381-3 0  9998
2 05730  73.8905 301.8681 0666516 161.7788 200.8538 14.09690111477460
COSMOS 482 DESCENT CRAFT
1 06073U 72023E   22278.25823526  .00066915  70956-5  20830-3 0  9999
2 06073  52.0220 311.3930 1114280  56.3163 313.9038 13.64119998614098
OAO 3 (COPERNICUS)      
1 06153U 72065A   22277.59939632  .00000533  00000+0  11829-3 0  9995
2 06153  35.0059 220.0781 0006567   7.9320 171.2030 14.58145264663227
ATLAS CENTAUR R/B       
1 06155U 72065B   22277.79180221  .00001246  00000+0  19627-3 0  9997
2 06155  35.0047  48.6585 0038130 321.0873  38.7083 14.72123614656347
SL-8 R/B                
1 08459U 75112B   22278.13119260  .00000226  00000+0  84875-4 0  9991
2 08459  74.0621 158.7840 0016543 206.5111 153.5198 14.36960853452239
SL-3 R/B                
1 10114U 77057B   22278.14549223  .00005236  00000+0  24951-3 0  9993
2 10114  97.4254  55.8955 0014154  44.0934 316.1427 15.19463285477169
SEASAT 1                
1 10967U 78064A   22277.24117095  .00000385  00000+0  15232-3 0  9998
2 10967 107.9906  23.4205 0001626 289.4635  70.6334 14.44067317325588
METEOR 1-29             
1 11251U 79005A   22277.50751399  .00022132  00000+0  44783-3 0  9998
2 11251  97.7406 255.1945 0012744   4.9159 355.2212 15.46378306937284
SL-14 R/B               
1 11267U 79011B   22277.51397594  .00000819  00000+0  83745-4 0  9996
2 11267  82.5280 201.9410 0015224 273.0844  86.8632 14.89265586342256
SL-8 R/B                
1 11574U 79089B   22277.66899306  .00000382  00000+0  12713-3 0  9997
2 11574  74.0684 245.8419 0015556  12.6101 347.5441 14.40938828255686
SL-14 R/B               
1 11672U 80005B   22277.91711637  .00000838  00000+0  87871-4 0  9998
2 11672  82.5161  51.9386 0016956  14.9248 345.2466 14.88288398311250
SL-8 R/B                
1 12139U 81003B   22277.85840615  .00014044  00000+0  62434-3 0  9999
2 12139  82.9481 322.9837 0436326  48.9387 314.8664 14.64044783128898
SL-3 R/B                
1 12465U 81046B   22277.86396820  .00005339  00000+0  26874-3 0  9998
2 12465  81.2419 317.9407 0031743 328.0195  31.9106 15.16586523247399
METEOR PRIRODA          
1 12585U 81065A   22277.74715233  .00008947  00000+0  36024-3 0  9998
2 12585  97.5868 283.9861 0014899 111.2326 249.0504 15.25007828250829
SL-3 R/B                
1 12904U 81103B   22277.88249937  .00003391  00000+0  22248-3 0  9995
2 12904  81.1781 222.8879 0027976 168.7296 191.4561 15.07098571783909
SL-3 R/B                
1 13068U 82013B   22277.83052584  .00003142  00000+0  19753-3 0  9994
2 13068  81.2011 170.8235 0026105  47.2803 313.0613 15.08675488214856
SL-3 R/B                
1 13154U 82039B   22277.83732980  .00002573  00000+0  20299-3 0  9997
2 13154  81.1854 203.5831 0040577 105.2279 255.3433 14.99752536193407
SL-3 R/B                
1 13403U 82079B   22277.85603702  .00004284  00000+0  26944-3 0  9993
2 13403  81.1718 210.0497 0030484  17.1072 343.1173 15.08628637188071
COSMOS 1408             
1 13552U 82092A   22277.81633754  .00012475  00000+0  36762-3 0  9999
2 13552  82.5734 158.7820 0027290  76.7130 283.7154 15.34508396 49504
SL-14 R/B               
1 13553U 82092B   22278.13789829  .00000664  00000+0  75613-4 0  9997
2 13553  82.5693 230.0588 0022560 123.9079 259.0443 14.84473318164207
SL-3 R/B                
1 13819U 83010B   22277.91433082  .00005521  00000+0  26789-3 0  9991
2 13819  81.1150  56.9441 0030245 357.7086   2.4000 15.17914119166973
COSMOS 1455             
1 14032U 83037A   22277.58576546  .00008283  00000+0  36478-3 0  9998
2 14032  82.5155 332.0832 0016531  28.2533 331.9596 15.21559412154829
SL-3 R/B                
1 14208U 83075B   22278.15019223  .00005882  00000+0  33093-3 0  9995
2 14208  97.4949 251.3010 0035382 293.2598  66.4910 15.13105176139885
COSMOS 1500             
1 14372U 83099A   22277.61062636  .00011607  00000+0  50217-3 0  9998
2 14372  82.5142 226.8041 0014046 175.6246 184.5116 15.22226738131212
COSMOS 1536             
1 14699U 84013A   22278.19894295  .00003932  00000+0  26120-3 0  9993
2 14699  82.5212 253.5149 0010134 293.5251  66.4912 15.06920477104404
COSMOS 1544             
1 14819U 84027A   22278.16952335  .00018753  00000+0  56867-3 0  9997
2 14819  82.4790 234.6619 0013215  52.7790 307.4656 15.33911718111472
SL-14 R/B               
1 14820U 84027B   22278.19434955  .00000536  00000+0  61533-4 0  9992
2 14820  82.5441 336.6135 0019463 147.8302 212.4105 14.83890686 83027
ERBS                    
1 15354U 84108B   22277.53697607  .00103605  00000+0  65322-3 0  9997
2 15354  56.9994 353.8575 0000907  55.3600 304.7555 15.75971435 98196
SL-8 R/B                
1 15483U 85006B   22278.07189152  .00000395  00000+0  14332-3 0  9996
2 15483  74.0473  41.6994 0019834 266.1561 267.3393 14.36509696974498
COSMOS 1626             
1 15494U 85009A   22277.77517555  .00012003  00000+0  43207-3 0  9991
2 15494  82.4742 107.6159 0003721  99.8652 260.3007 15.28457988 63311
SL-12 R/B(2)            
1 15772U 85042D   22277.26801045  .00000028  00000+0  34479-4 0  9997
2 15772  71.1087 212.3276 0037833 274.0692 193.8725 14.21360545936391
SL-14 R/B               
1 15945U 85069B   22278.06465194  .00000525  00000+0  59606-4 0  9999
2 15945  82.5248 119.7688 0020011  16.5983 343.5883 14.84274845  8145
SL-16 R/B               
1 16182U 85097B   22277.69403723 -.00000171  00000+0 -62185-4 0  9997
2 16182  71.0015 255.6676 0007829 346.4407 185.9688 14.16291334909934
SL-14 R/B               
1 16496U 86006B   22277.49680479  .00000615  00000+0  70191-4 0  9996
2 16496  82.5285 355.7017 0019737 156.9243 213.9411 14.84375727963303
COSMOS 1743             
1 16719U 86034A   22277.64039890  .00006907  00000+0  33833-3 0  9998
2 16719  82.5484 253.6757 0013014  56.5806 354.6067 15.17922075988602
SL-14 R/B               
1 16792U 86046B   22278.17733446  .00000596  00000+0  69222-4 0  9999
2 16792  82.4858 180.3995 0025124  40.4333 319.8742 14.83477180961854
SL-14 R/B               
1 16882U 86055B   22278.26989965  .00000666  00000+0  77917-4 0  9996
2 16882  82.5229 220.7770 0020677 141.8007 332.5574 14.83468762954874
AJISAI (EGS)            
1 16908U 86061A   22277.90667433 -.00000084  00000+0  91290-4 0  9990
2 16908  50.0116 342.4862 0011240 341.1302 200.2589 12.44497243312125
COSMOS 1812             
1 17295U 87003A   22277.84705229  .00008572  00000+0  41450-3 0  9997
2 17295  82.5146  37.2596 0001724 254.0783 106.0261 15.18474057951897
